Year,Month,Day,Hour,Minute,Value (Times are PST for temperature in C)
2011,03,29,00,00,7.70
2011,03,29,00,01,7.70
2011,03,29,00,02,7.70
2011,03,29,00,03,7.70
2011,03,29,00,04,7.70
2011,03,29,00,05,7.70
2011,03,29,00,06,7.70
2011,03,29,00,07,7.70
2011,03,29,00,08,7.70
2011,03,29,00,09,7.70
2011,03,29,00,10,7.70
2011,03,29,00,11,7.70
2011,03,29,00,12,7.70
2011,03,29,00,13,7.70
2011,03,29,00,14,7.70
2011,03,29,00,15,7.70
2011,03,29,00,16,7.70
2011,03,29,00,17,7.70
2011,03,29,00,18,7.70
2011,03,29,00,19,7.70
2011,03,29,00,20,7.70
2011,03,29,00,21,7.70
2011,03,29,00,22,7.70
2011,03,29,00,23,7.70
2011,03,29,00,24,7.70
2011,03,29,00,25,7.70
2011,03,29,00,26,7.70
2011,03,29,00,27,7.70
2011,03,29,00,28,7.70
2011,03,29,00,29,7.70
2011,03,29,00,30,7.80
2011,03,29,00,31,7.80
2011,03,29,00,32,7.80
2011,03,29,00,33,7.80
2011,03,29,00,34,7.80
2011,03,29,00,35,7.80
2011,03,29,00,36,7.80
2011,03,29,00,37,7.80
2011,03,29,00,38,7.80
2011,03,29,00,39,7.80
2011,03,29,00,40,7.80
2011,03,29,00,41,7.80
2011,03,29,00,42,7.80
2011,03,29,00,43,7.80
2011,03,29,00,44,7.80
2011,03,29,00,45,7.80
2011,03,29,00,46,7.80
2011,03,29,00,47,7.80
2011,03,29,00,48,7.80
2011,03,29,00,49,7.80
2011,03,29,00,50,7.80
2011,03,29,00,51,7.80
2011,03,29,00,52,7.80
2011,03,29,00,53,7.80
2011,03,29,00,54,7.80
2011,03,29,00,55,7.80
2011,03,29,00,56,7.80
2011,03,29,00,57,7.80
2011,03,29,00,58,7.80
2011,03,29,00,59,7.80
2011,03,29,01,00,7.80
2011,03,29,01,01,7.80
2011,03,29,01,02,7.80
2011,03,29,01,03,7.80
2011,03,29,01,04,7.80
2011,03,29,01,05,7.80
2011,03,29,01,06,7.80
2011,03,29,01,07,7.80
2011,03,29,01,08,7.80
2011,03,29,01,09,7.80
2011,03,29,01,10,7.80
2011,03,29,01,11,7.80
2011,03,29,01,12,7.80
2011,03,29,01,13,7.80
2011,03,29,01,14,7.80
2011,03,29,01,15,7.80
2011,03,29,01,16,7.80
2011,03,29,01,17,7.80
2011,03,29,01,18,7.80
2011,03,29,01,19,7.80
2011,03,29,01,20,7.80
2011,03,29,01,21,7.80
2011,03,29,01,22,7.80
2011,03,29,01,23,7.80
2011,03,29,01,24,7.80
2011,03,29,01,25,7.80
2011,03,29,01,26,7.80
2011,03,29,04,57,7.40
2011,03,29,04,58,7.40
2011,03,29,04,59,7.40
2011,03,29,05,00,7.40
2011,03,29,05,01,7.40
2011,03,29,05,02,7.30
2011,03,29,05,03,7.30
2011,03,29,05,04,7.30
2011,03,29,05,05,7.30
2011,03,29,05,06,7.30
2011,03,29,05,07,7.30
2011,03,29,05,08,7.30
2011,03,29,05,09,7.30
2011,03,29,05,10,7.30
2011,03,29,05,11,7.30
2011,03,29,05,12,7.30
2011,03,29,05,13,7.30
2011,03,29,05,14,7.30
2011,03,29,05,15,7.30
2011,03,29,05,16,7.30
2011,03,29,05,17,7.30
2011,03,29,05,18,7.30
2011,03,29,05,19,7.30
2011,03,29,05,20,7.30
2011,03,29,05,21,7.30
2011,03,29,05,22,7.30
2011,03,29,05,23,7.30
2011,03,29,05,24,7.30
2011,03,29,05,25,7.30
2011,03,29,05,26,7.30
2011,03,29,05,27,7.30
2011,03,29,05,28,7.30
2011,03,29,05,29,7.30
2011,03,29,05,30,7.30
2011,03,29,05,31,7.20
2011,03,29,05,32,7.20
2011,03,29,05,33,7.20
2011,03,29,05,34,7.20
2011,03,29,05,35,7.20
2011,03,29,05,36,7.20
2011,03,29,05,37,7.20
2011,03,29,05,38,7.20
2011,03,29,05,39,7.20
2011,03,29,05,40,7.10
2011,03,29,05,41,7.10
2011,03,29,05,42,7.10
2011,03,29,05,43,7.10
2011,03,29,05,44,7.10
2011,03,29,05,45,7.10
2011,03,29,05,46,7.10
2011,03,29,05,47,7.10
2011,03,29,05,48,7.10
2011,03,29,05,49,7.10
2011,03,29,05,50,7.10
2011,03,29,05,51,7.10
2011,03,29,05,52,7.10
2011,03,29,05,53,7.10
2011,03,29,05,54,7.10
2011,03,29,05,55,7.10
2011,03,29,05,56,7.10
2011,03,29,05,57,7.10
2011,03,29,05,58,7.10
2011,03,29,05,59,7.10
2011,03,29,06,00,7.10
2011,03,29,06,01,7.10
2011,03,29,06,02,7.10
2011,03,29,06,03,7.10
2011,03,29,06,04,7.10
2011,03,29,06,05,7.10
2011,03,29,06,06,7.10
2011,03,29,06,07,7.10
2011,03,29,06,08,7.10
2011,03,29,06,09,7.10
2011,03,29,06,10,7.10
2011,03,29,06,11,7.10
2011,03,29,06,12,7.10
2011,03,29,06,13,7.10
2011,03,29,06,14,7.10
2011,03,29,06,15,7.10
2011,03,29,06,16,7.10
2011,03,29,06,17,7.10
2011,03,29,06,18,7.10
2011,03,29,06,19,7.10
2011,03,29,06,20,7.10
2011,03,29,06,21,7.10
2011,03,29,06,22,7.10
2011,03,29,06,23,7.10
2011,03,29,06,24,7.10
2011,03,29,06,25,7.10
2011,03,29,06,26,7.10
2011,03,29,06,27,7.10
2011,03,29,06,28,7.10
2011,03,29,06,29,7.10
2011,03,29,06,30,7.10
2011,03,29,06,31,7.10
2011,03,29,06,32,7.10
2011,03,29,06,33,7.10
2011,03,29,06,34,7.10
2011,03,29,06,35,7.10
2011,03,29,06,36,7.10
2011,03,29,06,37,7.10
2011,03,29,06,38,7.10
2011,03,29,06,39,7.20
2011,03,29,06,40,7.20
2011,03,29,06,41,7.20
2011,03,29,06,42,7.20
2011,03,29,06,43,7.10
2011,03,29,06,44,7.10
2011,03,29,06,45,7.10
2011,03,29,06,46,7.10
2011,03,29,06,47,7.10
2011,03,29,06,48,7.10
2011,03,29,06,49,7.10
2011,03,29,06,50,7.10
2011,03,29,06,51,7.10
2011,03,29,06,52,7.10
2011,03,29,06,53,7.10
2011,03,29,06,54,7.10
2011,03,29,06,55,7.10
2011,03,29,06,56,7.10
2011,03,29,06,57,7.10
2011,03,29,06,58,7.10
2011,03,29,06,59,7.10
2011,03,29,07,00,7.10
2011,03,29,07,01,7.10
2011,03,29,07,02,7.10
2011,03,29,07,03,7.10
2011,03,29,07,04,7.10
2011,03,29,07,05,7.10
2011,03,29,07,06,7.10
2011,03,29,07,07,7.10
2011,03,29,07,08,7.10
2011,03,29,07,09,7.10
2011,03,29,07,10,7.20
2011,03,29,07,11,7.20
2011,03,29,07,12,7.20
2011,03,29,07,13,7.20
2011,03,29,07,14,7.20
2011,03,29,07,15,7.20
2011,03,29,07,16,7.20
2011,03,29,07,17,7.20
2011,03,29,07,18,7.20
2011,03,29,07,19,7.20
2011,03,29,07,20,7.20
2011,03,29,07,21,7.20
2011,03,29,07,22,7.20
2011,03,29,07,23,7.20
2011,03,29,07,24,7.20
2011,03,29,07,25,7.30
2011,03,29,07,26,7.30
2011,03,29,07,27,7.30
2011,03,29,07,28,7.30
2011,03,29,07,29,7.30
2011,03,29,07,30,7.30
2011,03,29,07,31,7.30
2011,03,29,07,32,7.30
2011,03,29,07,33,7.30
2011,03,29,07,34,7.30
2011,03,29,07,35,7.30
2011,03,29,07,36,7.30
2011,03,29,07,37,7.30
2011,03,29,07,38,7.30
2011,03,29,07,39,7.30
2011,03,29,07,40,7.30
2011,03,29,07,41,7.30
2011,03,29,07,42,7.30
2011,03,29,07,43,7.30
2011,03,29,07,44,7.30
2011,03,29,07,45,7.40
2011,03,29,07,46,7.40
2011,03,29,07,47,7.40
2011,03,29,07,48,7.40
2011,03,29,07,49,7.40
2011,03,29,07,50,7.40
2011,03,29,07,51,7.40
2011,03,29,07,52,7.40
2011,03,29,07,53,7.40
2011,03,29,07,54,7.40
2011,03,29,07,55,7.40
2011,03,29,07,56,7.40
2011,03,29,07,57,7.50
2011,03,29,07,58,7.50
2011,03,29,07,59,7.50
2011,03,29,08,00,7.50
2011,03,29,08,01,7.50
2011,03,29,08,02,7.50
2011,03,29,08,03,7.60
2011,03,29,08,04,7.60
2011,03,29,08,05,7.60
2011,03,29,08,06,7.60
2011,03,29,08,07,7.60
2011,03,29,08,08,7.60
2011,03,29,08,09,7.60
2011,03,29,08,10,7.70
2011,03,29,08,11,7.70
2011,03,29,08,12,7.70
2011,03,29,08,13,7.70
2011,03,29,08,14,7.70
2011,03,29,08,15,7.70
2011,03,29,08,16,7.70
2011,03,29,08,17,7.70
2011,03,29,08,18,7.70
2011,03,29,08,19,7.70
2011,03,29,08,20,7.70
2011,03,29,08,21,7.70
2011,03,29,08,22,7.70
2011,03,29,08,23,7.70
2011,03,29,08,24,7.80
2011,03,29,08,25,7.80
2011,03,29,08,26,7.80
2011,03,29,08,27,7.80
2011,03,29,08,28,7.80
2011,03,29,08,29,7.80
2011,03,29,08,30,7.80
2011,03,29,08,31,7.80
2011,03,29,08,32,7.80
2011,03,29,08,33,7.80
2011,03,29,08,34,7.80
2011,03,29,08,35,7.80
2011,03,29,08,36,7.80
2011,03,29,08,37,7.80
2011,03,29,08,38,7.90
2011,03,29,08,39,7.90
2011,03,29,08,40,7.90
2011,03,29,08,41,7.90
2011,03,29,08,42,7.90
2011,03,29,08,43,7.90
2011,03,29,08,44,7.90
2011,03,29,08,45,7.90
2011,03,29,08,46,7.90
2011,03,29,08,47,7.90
2011,03,29,08,48,8.00
2011,03,29,08,49,8.00
2011,03,29,08,50,8.00
2011,03,29,08,51,8.00
2011,03,29,08,52,8.00
2011,03,29,08,53,8.00
2011,03,29,08,54,8.00
2011,03,29,08,55,8.00
2011,03,29,08,56,8.00
2011,03,29,08,57,8.10
2011,03,29,08,58,8.10
2011,03,29,08,59,8.10
2011,03,29,09,00,8.10
2011,03,29,09,01,8.10
2011,03,29,09,02,8.10
2011,03,29,09,03,8.10
2011,03,29,09,04,8.10
2011,03,29,09,05,8.10
2011,03,29,09,06,8.10
2011,03,29,09,07,8.10
2011,03,29,09,08,8.10
2011,03,29,09,09,8.10
2011,03,29,09,10,8.10
2011,03,29,09,11,8.10
2011,03,29,09,12,8.10
2011,03,29,09,13,8.10
2011,03,29,09,14,8.10
2011,03,29,09,15,8.10
2011,03,29,09,16,8.10
2011,03,29,09,17,8.10
2011,03,29,09,18,8.10
2011,03,29,09,19,8.10
2011,03,29,09,20,8.10
2011,03,29,09,21,8.10
2011,03,29,09,22,8.10
2011,03,29,09,23,8.10
2011,03,29,09,24,8.10
2011,03,29,09,25,8.10
2011,03,29,09,26,8.10
2011,03,29,09,27,8.10
2011,03,29,09,28,8.10
2011,03,29,09,29,8.10
2011,03,29,09,30,8.10
2011,03,29,09,31,8.10
2011,03,29,09,32,8.10
2011,03,29,09,33,8.10
2011,03,29,09,34,8.10
2011,03,29,09,35,8.10
2011,03,29,09,36,8.10
2011,03,29,09,37,8.10
2011,03,29,09,38,8.20
2011,03,29,09,39,8.20
2011,03,29,09,40,8.20
2011,03,29,09,41,8.20
2011,03,29,09,42,8.20
2011,03,29,09,43,8.20
2011,03,29,09,44,8.30
2011,03,29,09,45,8.30
2011,03,29,09,46,8.30
2011,03,29,09,47,8.30
2011,03,29,09,48,8.30
2011,03,29,09,49,8.30
2011,03,29,09,50,8.20
2011,03,29,09,51,8.20
2011,03,29,09,52,8.20
2011,03,29,09,53,8.20
2011,03,29,09,54,8.20
2011,03,29,09,55,8.20
2011,03,29,09,56,8.20
2011,03,29,09,57,8.20
2011,03,29,09,58,8.30
2011,03,29,09,59,8.30
2011,03,29,10,00,8.30
2011,03,29,10,01,8.30
2011,03,29,10,02,8.30
2011,03,29,10,03,8.30
2011,03,29,10,04,8.30
2011,03,29,10,05,8.30
2011,03,29,10,06,8.30
2011,03,29,10,07,8.30
2011,03,29,10,08,8.40
2011,03,29,10,09,8.40
2011,03,29,10,10,8.40
2011,03,29,10,11,8.40
2011,03,29,10,12,8.40
2011,03,29,10,13,8.40
2011,03,29,10,14,8.40
2011,03,29,10,15,8.40
2011,03,29,10,16,8.40
2011,03,29,10,17,8.40
2011,03,29,10,18,8.40
2011,03,29,10,19,8.40
2011,03,29,10,20,8.40
2011,03,29,10,21,8.40
2011,03,29,10,22,8.40
2011,03,29,10,23,8.40
2011,03,29,10,24,8.40
2011,03,29,10,25,8.40
2011,03,29,10,26,8.40
2011,03,29,10,27,8.40
2011,03,29,10,28,8.40
2011,03,29,10,29,8.50
2011,03,29,10,30,8.50
2011,03,29,10,31,8.50
2011,03,29,10,32,8.50
2011,03,29,10,33,8.50
2011,03,29,10,34,8.50
2011,03,29,10,35,8.50
2011,03,29,10,36,8.50
2011,03,29,10,37,8.60
2011,03,29,10,38,8.60
2011,03,29,10,39,8.60
2011,03,29,10,40,8.70
2011,03,29,10,41,8.70
2011,03,29,10,42,8.70
2011,03,29,10,43,8.70
2011,03,29,10,44,8.70
2011,03,29,10,45,8.70
2011,03,29,10,46,8.70
2011,03,29,10,47,8.70
2011,03,29,10,48,8.70
2011,03,29,10,49,8.70
2011,03,29,10,50,8.70
2011,03,29,10,51,8.70
2011,03,29,10,52,8.60
2011,03,29,10,53,8.60
2011,03,29,10,54,8.60
2011,03,29,10,55,8.60
2011,03,29,10,56,8.60
2011,03,29,10,57,8.60
2011,03,29,10,58,8.60
2011,03,29,10,59,8.60
2011,03,29,11,00,8.60
2011,03,29,11,01,8.60
2011,03,29,11,02,8.60
2011,03,29,11,03,8.70
2011,03,29,11,04,8.70
2011,03,29,11,05,8.70
2011,03,29,11,06,8.70
2011,03,29,11,07,8.70
2011,03,29,11,08,8.70
2011,03,29,11,09,8.60
2011,03,29,11,10,8.60
2011,03,29,11,11,8.60
2011,03,29,11,12,8.60
2011,03,29,11,13,8.60
2011,03,29,11,14,8.60
2011,03,29,11,15,8.60
2011,03,29,11,16,8.60
2011,03,29,11,17,8.70
2011,03,29,11,18,8.70
2011,03,29,11,19,8.70
2011,03,29,11,20,8.70
2011,03,29,11,21,8.70
2011,03,29,11,22,8.70
2011,03,29,11,23,8.70
2011,03,29,11,24,8.80
2011,03,29,11,25,8.80
2011,03,29,11,26,8.80
2011,03,29,11,27,8.80
2011,03,29,11,28,8.80
2011,03,29,11,29,8.80
2011,03,29,11,30,8.80
2011,03,29,11,31,8.80
2011,03,29,11,32,8.80
2011,03,29,11,33,8.80
2011,03,29,11,34,8.80
2011,03,29,11,35,8.80
2011,03,29,11,36,8.80
2011,03,29,11,37,8.80
2011,03,29,11,38,8.80
2011,03,29,11,39,8.80
2011,03,29,11,40,8.80
2011,03,29,11,41,8.80
2011,03,29,11,42,8.80
2011,03,29,11,43,8.70
2011,03,29,11,44,8.70
2011,03,29,11,45,8.70
2011,03,29,11,46,8.70
2011,03,29,11,47,8.70
2011,03,29,11,48,8.70
2011,03,29,11,49,8.80
2011,03,29,11,50,8.80
2011,03,29,11,51,8.80
2011,03,29,11,52,8.80
2011,03,29,11,53,8.90
2011,03,29,11,54,8.90
2011,03,29,11,55,9.00
2011,03,29,11,56,9.00
2011,03,29,11,57,9.10
2011,03,29,11,58,9.10
2011,03,29,11,59,9.10
2011,03,29,12,00,9.20
2011,03,29,12,01,9.20
2011,03,29,12,02,9.20
2011,03,29,12,03,9.20
2011,03,29,12,04,9.20
2011,03,29,12,05,9.30
2011,03,29,12,06,9.30
2011,03,29,12,07,9.30
2011,03,29,12,08,9.30
2011,03,29,12,09,9.30
2011,03,29,12,10,9.30
2011,03,29,12,11,9.30
2011,03,29,12,12,9.30
2011,03,29,12,13,9.30
2011,03,29,12,14,9.30
2011,03,29,12,15,9.40
2011,03,29,12,16,9.40
2011,03,29,12,17,9.40
2011,03,29,12,18,9.40
2011,03,29,12,19,9.40
2011,03,29,12,20,9.40
2011,03,29,12,21,9.40
2011,03,29,12,22,9.40
2011,03,29,12,23,9.40
2011,03,29,12,24,9.40
2011,03,29,12,25,9.40
2011,03,29,12,26,9.30
2011,03,29,12,27,9.30
2011,03,29,12,28,9.30
2011,03,29,12,29,9.30
2011,03,29,12,30,9.30
2011,03,29,12,31,9.30
2011,03,29,12,32,9.30
2011,03,29,12,33,9.30
2011,03,29,12,34,9.30
2011,03,29,12,35,9.30
2011,03,29,12,36,9.30
2011,03,29,12,37,9.30
2011,03,29,12,38,9.30
2011,03,29,12,39,9.20
2011,03,29,12,40,9.20
2011,03,29,12,41,9.20
2011,03,29,12,42,9.10
2011,03,29,12,43,9.10
2011,03,29,12,44,9.10
2011,03,29,12,45,9.00
2011,03,29,12,46,9.00
2011,03,29,12,47,9.00
2011,03,29,12,48,9.00
2011,03,29,12,49,9.00
2011,03,29,12,50,9.00
2011,03,29,12,51,9.00
2011,03,29,12,52,9.00
2011,03,29,12,53,9.00
2011,03,29,12,54,9.00
2011,03,29,12,55,9.00
2011,03,29,12,56,9.00
2011,03,29,12,57,8.90
2011,03,29,12,58,8.90
2011,03,29,12,59,8.90
2011,03,29,13,00,8.90
2011,03,29,13,01,8.90
2011,03,29,13,02,8.90
2011,03,29,13,03,8.90
2011,03,29,13,04,8.90
2011,03,29,13,05,8.90
2011,03,29,13,06,8.90
2011,03,29,13,07,8.80
2011,03,29,13,08,8.80
2011,03,29,13,09,8.80
2011,03,29,13,10,8.80
2011,03,29,13,11,8.80
2011,03,29,13,12,8.80
2011,03,29,13,13,8.80
2011,03,29,13,14,8.80
2011,03,29,13,15,8.80
2011,03,29,13,16,8.70
2011,03,29,13,17,8.70
2011,03,29,13,18,8.70
2011,03,29,13,19,8.70
2011,03,29,13,20,8.70
2011,03,29,13,21,8.70
2011,03,29,13,22,8.70
2011,03,29,13,23,8.70
2011,03,29,13,24,8.60
2011,03,29,13,25,8.60
2011,03,29,13,26,8.60
2011,03,29,13,27,8.60
2011,03,29,13,28,8.70
2011,03,29,13,29,8.70
2011,03,29,13,30,8.70
2011,03,29,13,31,8.70
2011,03,29,13,32,8.70
2011,03,29,13,33,8.70
2011,03,29,13,34,8.70
2011,03,29,13,35,8.70
2011,03,29,13,36,8.70
2011,03,29,13,37,8.70
2011,03,29,13,38,8.70
2011,03,29,13,39,8.80
2011,03,29,13,40,8.80
2011,03,29,13,41,8.80
2011,03,29,13,42,8.80
2011,03,29,13,43,8.80
2011,03,29,13,44,8.80
2011,03,29,13,45,8.80
2011,03,29,13,46,8.80
2011,03,29,13,47,8.80
2011,03,29,13,48,8.80
2011,03,29,13,49,8.80
2011,03,29,13,50,8.80
2011,03,29,13,51,8.80
2011,03,29,13,52,8.80
2011,03,29,13,53,8.80
2011,03,29,13,54,8.80
2011,03,29,13,55,8.80
2011,03,29,13,56,8.80
2011,03,29,13,57,8.80
2011,03,29,13,58,8.80
2011,03,29,13,59,8.80
2011,03,29,14,00,8.80
2011,03,29,14,01,8.80
2011,03,29,14,02,8.80
2011,03,29,14,03,8.80
2011,03,29,14,04,8.80
2011,03,29,14,05,8.80
2011,03,29,14,06,8.80
2011,03,29,14,07,8.80
2011,03,29,14,08,8.70
2011,03,29,14,09,8.70
2011,03,29,14,10,8.70
2011,03,29,14,11,8.70
2011,03,29,14,12,8.70
2011,03,29,14,13,8.70
2011,03,29,14,14,8.70
2011,03,29,14,15,8.70
2011,03,29,14,16,8.70
2011,03,29,14,17,8.70
2011,03,29,14,18,8.70
2011,03,29,14,19,8.70
2011,03,29,14,20,8.70
2011,03,29,14,21,8.70
2011,03,29,14,22,8.70
2011,03,29,14,23,8.70
2011,03,29,14,24,8.70
2011,03,29,14,25,8.70
2011,03,29,14,26,8.80
2011,03,29,14,27,8.80
2011,03,29,14,28,8.80
2011,03,29,14,29,8.80
2011,03,29,14,30,8.90
2011,03,29,14,31,8.90
2011,03,29,14,32,8.90
2011,03,29,14,33,8.90
2011,03,29,14,34,8.90
2011,03,29,14,35,8.90
2011,03,29,14,36,8.90
2011,03,29,14,37,8.90
2011,03,29,14,38,8.90
2011,03,29,14,39,8.90
2011,03,29,14,40,8.90
2011,03,29,14,41,8.90
2011,03,29,14,42,9.00
2011,03,29,14,43,9.00
2011,03,29,14,44,9.00
2011,03,29,14,45,9.00
2011,03,29,14,46,9.00
2011,03,29,14,47,9.10
2011,03,29,14,48,9.10
2011,03,29,14,49,9.10
2011,03,29,14,50,9.10
2011,03,29,14,51,9.10
2011,03,29,14,52,9.20
2011,03,29,14,53,9.20
2011,03,29,14,54,9.20
2011,03,29,14,55,9.20
2011,03,29,14,56,9.20
2011,03,29,14,57,9.20
2011,03,29,14,58,9.30
2011,03,29,14,59,9.30
2011,03,29,15,00,9.30
2011,03,29,15,01,9.20
2011,03,29,15,02,9.20
2011,03,29,15,03,9.20
2011,03,29,15,04,9.20
2011,03,29,15,05,9.30
2011,03,29,15,06,9.30
2011,03,29,15,07,9.30
2011,03,29,15,08,9.30
2011,03,29,15,09,9.30
2011,03,29,15,10,9.40
2011,03,29,15,11,9.40
2011,03,29,15,12,9.40
2011,03,29,15,13,9.40
2011,03,29,15,14,9.40
2011,03,29,15,15,9.50
2011,03,29,15,16,9.50
2011,03,29,15,17,9.50
2011,03,29,15,18,9.50
2011,03,29,15,19,9.50
2011,03,29,15,20,9.50
2011,03,29,15,21,9.50
2011,03,29,15,22,9.50
2011,03,29,15,23,9.50
2011,03,29,15,24,9.50
2011,03,29,15,25,9.50
2011,03,29,15,26,9.50
2011,03,29,15,27,9.50
2011,03,29,15,28,9.60
2011,03,29,15,29,9.60
2011,03,29,15,30,9.60
2011,03,29,15,31,9.60
2011,03,29,15,32,9.60
2011,03,29,15,33,9.60
2011,03,29,15,34,9.60
2011,03,29,15,35,9.60
2011,03,29,15,36,9.60
2011,03,29,15,37,9.60
2011,03,29,15,38,9.70
2011,03,29,15,39,9.70
2011,03,29,15,40,9.70
2011,03,29,15,41,9.70
2011,03,29,15,42,9.70
2011,03,29,15,43,9.70
2011,03,29,15,44,9.70
2011,03,29,15,45,9.70
2011,03,29,15,46,9.70
2011,03,29,15,47,9.70
2011,03,29,15,48,9.70
2011,03,29,15,49,9.70
2011,03,29,15,50,9.70
2011,03,29,15,51,9.70
2011,03,29,15,52,9.70
2011,03,29,15,53,9.70
2011,03,29,15,54,9.60
2011,03,29,15,55,9.60
2011,03,29,15,56,9.40
2011,03,29,15,57,9.40
2011,03,29,15,58,9.30
2011,03,29,15,59,9.30
2011,03,29,16,00,9.20
2011,03,29,16,01,9.10
2011,03,29,16,02,9.10
2011,03,29,16,03,9.00
2011,03,29,16,04,9.00
2011,03,29,16,05,8.90
2011,03,29,16,06,8.80
2011,03,29,16,07,8.80
2011,03,29,16,08,8.80
2011,03,29,16,09,8.80
2011,03,29,16,10,8.70
2011,03,29,16,11,8.70
2011,03,29,16,12,8.70
2011,03,29,16,13,8.70
2011,03,29,16,14,8.70
2011,03,29,16,15,8.60
2011,03,29,16,16,8.60
2011,03,29,16,17,8.60
2011,03,29,16,18,8.60
2011,03,29,16,19,8.60
2011,03,29,16,20,8.60
2011,03,29,16,21,8.60
2011,03,29,16,22,8.60
2011,03,29,16,23,8.60
2011,03,29,16,24,8.60
2011,03,29,16,25,8.50
2011,03,29,16,26,8.50
2011,03,29,16,27,8.50
2011,03,29,16,28,8.50
2011,03,29,16,29,8.50
2011,03,29,16,30,8.50
2011,03,29,16,31,8.50
2011,03,29,16,32,8.50
2011,03,29,16,33,8.50
2011,03,29,16,34,8.50
2011,03,29,16,35,8.50
2011,03,29,16,36,8.50
2011,03,29,16,37,8.50
2011,03,29,16,38,8.50
2011,03,29,16,39,8.50
2011,03,29,16,40,8.50
2011,03,29,16,41,8.50
2011,03,29,16,42,8.50
2011,03,29,16,43,8.50
2011,03,29,16,44,8.60
2011,03,29,16,45,8.60
2011,03,29,16,46,8.60
2011,03,29,16,47,8.70
2011,03,29,16,48,8.70
2011,03,29,16,49,8.70
2011,03,29,16,50,8.70
2011,03,29,16,51,8.70
2011,03,29,16,52,8.70
2011,03,29,16,53,8.70
2011,03,29,16,54,8.80
2011,03,29,16,55,8.80
2011,03,29,16,56,8.80
2011,03,29,16,57,8.80
2011,03,29,16,58,8.80
2011,03,29,16,59,8.90
2011,03,29,17,00,8.90
2011,03,29,17,01,8.90
2011,03,29,17,02,8.90
2011,03,29,17,03,8.90
2011,03,29,17,04,8.90
2011,03,29,17,05,8.90
2011,03,29,17,06,8.90
2011,03,29,17,07,8.90
2011,03,29,17,08,8.90
2011,03,29,17,09,8.90
2011,03,29,17,10,8.90
2011,03,29,17,11,8.90
2011,03,29,17,12,8.90
2011,03,29,17,13,8.90
2011,03,29,17,14,8.90
2011,03,29,17,15,8.90
2011,03,29,17,16,8.90
2011,03,29,17,17,8.90
2011,03,29,17,18,8.90
2011,03,29,17,19,8.90
2011,03,29,17,20,8.90
2011,03,29,17,21,8.90
2011,03,29,17,22,8.90
2011,03,29,17,23,8.90
2011,03,29,17,24,8.90
2011,03,29,17,25,8.90
2011,03,29,17,26,8.90
2011,03,29,17,27,8.90
2011,03,29,17,28,9.00
2011,03,29,17,29,9.00
2011,03,29,17,30,9.00
2011,03,29,17,31,9.00
2011,03,29,17,32,9.00
2011,03,29,17,33,9.00
2011,03,29,17,34,9.10
2011,03,29,17,35,9.10
2011,03,29,17,36,9.10
2011,03,29,17,37,9.10
2011,03,29,17,38,9.10
2011,03,29,17,39,9.10
2011,03,29,17,40,9.10
2011,03,29,17,41,9.10
2011,03,29,17,42,9.10
2011,03,29,17,43,9.10
2011,03,29,17,44,9.20
2011,03,29,17,45,9.20
2011,03,29,17,46,9.20
2011,03,29,17,47,9.20
2011,03,29,17,48,9.20
2011,03,29,17,49,9.20
2011,03,29,17,50,9.20
2011,03,29,17,51,9.30
2011,03,29,17,52,9.30
2011,03,29,17,53,9.30
2011,03,29,17,54,9.30
2011,03,29,17,55,9.30
2011,03,29,17,56,9.30
2011,03,29,17,57,9.30
2011,03,29,17,58,9.30
2011,03,29,17,59,9.30
2011,03,29,18,00,9.30
2011,03,29,18,01,9.30
2011,03,29,18,02,9.30
2011,03,29,18,03,9.30
2011,03,29,18,04,9.30
2011,03,29,18,05,9.30
2011,03,29,18,06,9.30
2011,03,29,18,07,9.30
2011,03,29,18,08,9.30
2011,03,29,18,09,9.30
2011,03,29,18,10,9.30
2011,03,29,18,11,9.30
2011,03,29,18,12,9.30
2011,03,29,18,13,9.40
2011,03,29,18,14,9.40
2011,03,29,18,15,9.40
2011,03,29,18,16,9.40
2011,03,29,18,17,9.40
2011,03,29,18,18,9.40
2011,03,29,18,19,9.40
2011,03,29,18,20,9.40
2011,03,29,18,21,9.40
2011,03,29,18,22,9.40
2011,03,29,18,23,9.40
2011,03,29,18,24,9.40
2011,03,29,18,25,9.40
2011,03,29,18,26,9.40
2011,03,29,18,27,9.40
2011,03,29,18,28,9.40
2011,03,29,18,29,9.40
2011,03,29,18,30,9.40
2011,03,29,18,31,9.40
2011,03,29,18,32,9.40
2011,03,29,18,33,9.40
2011,03,29,18,34,9.40
2011,03,29,18,35,9.40
2011,03,29,18,36,9.40
2011,03,29,18,37,9.40
2011,03,29,18,38,9.40
2011,03,29,18,39,9.40
2011,03,29,18,40,9.40
2011,03,29,18,41,9.40
2011,03,29,18,42,9.40
2011,03,29,18,43,9.40
2011,03,29,18,44,9.30
2011,03,29,18,45,9.30
2011,03,29,18,46,9.30
2011,03,29,18,47,9.30
2011,03,29,18,48,9.30
2011,03,29,18,49,9.30
2011,03,29,18,50,9.30
2011,03,29,18,51,9.30
2011,03,29,18,52,9.30
2011,03,29,18,53,9.30
2011,03,29,18,54,9.30
2011,03,29,18,55,9.30
2011,03,29,18,56,9.30
2011,03,29,18,57,9.30
2011,03,29,18,58,9.30
2011,03,29,18,59,9.30
2011,03,29,19,00,9.30
2011,03,29,19,01,9.30
2011,03,29,19,02,9.30
2011,03,29,19,03,9.30
2011,03,29,19,04,9.30
2011,03,29,19,05,9.30
2011,03,29,19,06,9.30
2011,03,29,19,07,9.30
2011,03,29,19,08,9.30
2011,03,29,19,09,9.30
2011,03,29,19,10,9.30
2011,03,29,19,11,9.30
2011,03,29,19,12,9.30
2011,03,29,19,13,9.30
2011,03,29,19,14,9.30
2011,03,29,19,15,9.30
2011,03,29,19,16,9.30
2011,03,29,19,17,9.30
2011,03,29,19,18,9.30
2011,03,29,19,19,9.30
2011,03,29,19,20,9.30
2011,03,29,19,21,9.30
2011,03,29,19,22,9.30
2011,03,29,19,23,9.30
2011,03,29,19,24,9.30
2011,03,29,19,25,9.30
2011,03,29,19,26,9.30
2011,03,29,19,27,9.30
2011,03,29,19,28,9.30
2011,03,29,19,29,9.30
2011,03,29,19,30,9.30
2011,03,29,19,31,9.30
2011,03,29,19,32,9.30
2011,03,29,19,33,9.30
2011,03,29,19,34,9.30
2011,03,29,19,35,9.30
2011,03,29,19,36,9.20
2011,03,29,19,37,9.20
2011,03,29,19,38,9.20
2011,03,29,19,39,9.20
2011,03,29,19,40,9.20
2011,03,29,19,41,9.20
2011,03,29,19,42,9.20
2011,03,29,19,43,9.20
2011,03,29,19,44,9.20
2011,03,29,19,45,9.20
2011,03,29,19,46,9.20
2011,03,29,19,47,9.20
2011,03,29,19,48,9.20
2011,03,29,19,49,9.20
2011,03,29,19,50,9.20
2011,03,29,19,51,9.20
2011,03,29,19,52,9.20
2011,03,29,19,53,9.20
2011,03,29,19,54,9.20
2011,03,29,19,55,9.20
2011,03,29,19,56,9.20
2011,03,29,19,57,9.20
2011,03,29,19,58,9.20
2011,03,29,19,59,9.20
2011,03,29,20,00,9.20
2011,03,29,20,01,9.20
2011,03,29,20,02,9.20
2011,03,29,20,03,9.20
2011,03,29,20,04,9.20
2011,03,29,20,05,9.20
2011,03,29,20,06,9.20
2011,03,29,20,07,9.20
2011,03,29,20,08,9.10
2011,03,29,20,09,9.10
2011,03,29,20,10,9.10
2011,03,29,20,11,9.10
2011,03,29,20,12,9.10
2011,03,29,20,13,9.10
2011,03,29,20,14,9.10
2011,03,29,20,15,9.10
2011,03,29,20,16,9.10
2011,03,29,20,17,9.10
2011,03,29,20,18,9.10
2011,03,29,20,19,9.10
2011,03,29,20,20,9.10
2011,03,29,20,21,9.10
2011,03,29,20,22,9.10
2011,03,29,20,23,9.10
2011,03,29,20,24,9.10
2011,03,29,20,25,9.10
2011,03,29,20,26,9.10
2011,03,29,20,27,9.10
2011,03,29,20,28,9.10
2011,03,29,20,29,9.10
2011,03,29,20,30,9.10
2011,03,29,20,31,9.10
2011,03,29,20,32,9.10
2011,03,29,20,33,9.10
2011,03,29,20,34,9.10
2011,03,29,20,35,9.10
2011,03,29,20,36,9.10
2011,03,29,20,37,9.10
2011,03,29,20,38,9.10
2011,03,29,20,39,9.10
2011,03,29,20,40,9.00
2011,03,29,20,41,9.00
2011,03,29,20,42,9.00
2011,03,29,20,43,9.00
2011,03,29,20,44,9.00
2011,03,29,20,45,9.00
2011,03,29,20,46,9.00
2011,03,29,20,47,9.00
2011,03,29,20,48,9.00
2011,03,29,20,49,8.90
2011,03,29,20,50,8.90
2011,03,29,20,51,8.90
2011,03,29,20,52,8.90
2011,03,29,20,53,8.90
2011,03,29,20,54,8.90
2011,03,29,20,55,8.90
2011,03,29,20,56,8.90
2011,03,29,20,57,8.90
2011,03,29,20,58,8.90
2011,03,29,20,59,8.90
2011,03,29,21,00,8.90
2011,03,29,21,01,8.90
2011,03,29,21,02,8.80
2011,03,29,21,03,8.80
2011,03,29,21,04,8.80
2011,03,29,21,05,8.80
2011,03,29,21,06,8.80
2011,03,29,21,07,8.80
2011,03,29,21,08,8.80
2011,03,29,21,09,8.80
2011,03,29,21,10,8.80
2011,03,29,21,11,8.80
2011,03,29,21,12,8.80
2011,03,29,21,13,8.80
2011,03,29,21,14,8.80
2011,03,29,21,15,8.80
2011,03,29,21,16,8.80
2011,03,29,21,17,8.80
2011,03,29,21,18,8.80
2011,03,29,21,19,8.80
2011,03,29,21,20,8.80
2011,03,29,21,21,8.80
2011,03,29,21,22,8.80
2011,03,29,21,23,8.80
2011,03,29,21,24,8.80
2011,03,29,21,25,8.80
2011,03,29,21,26,8.80
2011,03,29,21,27,8.80
2011,03,29,21,28,8.80
2011,03,29,21,29,8.80
2011,03,29,21,30,8.80
2011,03,29,21,31,8.80
2011,03,29,21,32,8.80
2011,03,29,21,33,8.80
2011,03,29,21,34,8.80
2011,03,29,21,35,8.80
2011,03,29,21,36,8.80